This demonstration page uses our WeatherBlox Daily Observations layout. Learn more.

Left ArrowRight Arrow

39.01783, -85.05884

Hourly Observations for June 27, 2018

Temp ( °F °C ) Dew Point ( °F °C ) Humidity (%) Winds ( mph kmh ) Pressure ( in mb ) Visibility ( mi km ) Precip ( " mm )
12:43 am 00:43 Cloudy with Light Rain 69 20.6 66 18.9 90 90 S 14 22 29.88 1012 10 16 N/A
12:52 am 00:52 Cloudy with Light Rain 69 20.6 66 18.9 90 90 S 13 20 29.87 1011 10 16 N/A
1:52 am 01:52 Cloudy 69 20.6 66 18.9 90 90 SSW 7 11 29.85 1011 10 16 N/A
2:52 am 02:52 Cloudy 69 20.6 65 18.3 87 87 SSW 7 11 29.88 1012 10 16 N/A
3:16 am 03:16 Cloudy 69 20.6 65 18.3 87 87 SW 8 13 29.88 1012 10 16 N/A
3:52 am 03:52 Cloudy 69 20.6 66 18.9 90 90 SW 8 13 29.87 1012 10 16 N/A
4:08 am 04:08 Cloudy 69 20.6 66 18.9 90 90 SSW 7 11 29.85 1011 10 16 N/A
4:52 am 04:52 Cloudy 69 20.6 66 18.9 90 90 SW 10 17 29.87 1011 10 16 0.01 0.25
5:27 am 05:27 Cloudy 69 20.6 66 18.9 90 90 SW 9 15 29.88 1012 10 16 N/A
5:37 am 05:37 Cloudy 69 20.6 66 18.9 90 90 SSW 8 13 29.88 1012 10 16 N/A
5:52 am 05:52 Cloudy 69 20.6 66 18.9 90 90 SW 10 17 29.87 1012 10 16 N/A
6:52 am 06:52 Cloudy 70 21.1 66 18.9 87 87 SW 12 19 29.88 1012 10 16 N/A
7:52 am 07:52 Cloudy 70 21.1 66 18.9 87 87 SSW 13 20 29.89 1012 10 16 N/A
8:52 am 08:52 Mostly Cloudy 72 22.2 66 18.9 82 82 SSW 12 19 29.88 1012 10 16 N/A
9:10 am 09:10 Cloudy 72 22.2 66 18.9 82 82 SW 14 22 29.88 1012 10 16 N/A
9:52 am 09:52 Cloudy 73 22.8 66 18.9 79 79 WSW 13 20 29.88 1012 10 16 N/A
10:40 am 10:40 Mostly Cloudy 73 22.8 66 18.9 79 79 SW 14 22 29.88 1012 10 16 N/A
10:52 am 10:52 Mostly Cloudy 75 23.9 68 20 79 79 SW 12 19 29.87 1012 10 16 N/A
11:52 am 11:52 Mostly Cloudy 77 25 68 20 74 74 SW 12 19 29.87 1011 10 16 N/A
12:08 pm 12:08 Mostly Cloudy 78 25.6 68 20 71 71 SW 15 24 29.85 1011 10 16 N/A
12:52 pm 12:52 Mostly Cloudy 79 26.1 68 20 69 69 SW 12 19 29.86 1011 10 16 N/A
1:52 pm 13:52 Mostly Cloudy 81 27.2 68 20 65 65 SW 14 22 29.85 1011 10 16 N/A
2:52 pm 14:52 Mostly Cloudy 81 27.2 68 20 65 65 SW 17 28 29.83 1010 10 16 N/A
3:52 pm 15:52 Mostly Cloudy 81 27.2 69 20.6 67 67 WSW 15 24 29.81 1009 10 16 N/A
4:52 pm 16:52 Partly Cloudy 83 28.3 69 20.6 63 63 VRB 7 11 29.79 1009 10 16 N/A
5:52 pm 17:52 Mostly Cloudy 82 27.8 69 20.6 65 65 SW 12 19 29.79 1009 10 16 N/A
6:52 pm 18:52 Mostly Cloudy 81 27.2 69 20.6 67 67 WSW 14 22 29.78 1009 10 16 N/A
7:52 pm 19:52 Partly Cloudy 81 27.2 69 20.6 67 67 WSW 10 17 29.78 1009 10 16 N/A
8:52 pm 20:52 Mostly Cloudy with Heavy Rain 76 24.4 69 20.6 79 79 W 13 20 29.81 1010 3 5 0.04 1.02
9:52 pm 21:52 Partly Cloudy 72 22.2 69 20.6 91 91 N N/A 29.82 1010 10 16 N/A
10:52 pm 22:52 Partly Cloudy 72 22.2 69 20.6 91 91 W 5 7 29.85 1011 10 16 N/A
11:52 pm 23:52 Partly Cloudy 72 22.2 70 21.1 94 94 W 5 7 29.86 1011 10 16 N/A

Powered by AerisWeather